User: anonymous   Login
Location: Pcim
(49.7500°N, 19.9670°E)
Time: 20:33:56
(UTC+02:00)
Language:

MOZHAYETS 4 - Orbit

View from above orbital plane
View from above orbital plane
View from above satellite
View from above satellite

Ground track
Ground track

The orbit data is extracted from the following two-line orbital elements,

1 27939U 03042A   24113.46199017  .00004716  00000-0  79988-3 0  9999
2 27939  98.2833 268.8123 0011266 232.4854 204.3564 14.69669863100091
Epoch (UTC): 22 April 2024 11:05:15
Eccentricity: 0.0011266
inclination: 98.2833°
perigee height: 654 km
apogee height: 670 km
right ascension of ascending node: 268.8123°
argument of perigee: 232.4854°
revolutions per day: 14.69669863
mean anomaly at epoch: 204.3564°
orbit number at epoch: 10009

The dashed part of the orbit path shows where the satellite is in the earth's shadow,  

DLR